パンスターズ彗星

C/2016 M1 ( PanSTARRS )

English version
Home page
Updated on July 13, 2019

---------------------------------------------------------------------

・ プロフィール

発見日 2016年6月22日
発見光度 19.7等
発見者 Pan-STARRS 1 telescope (Haleakala)

・ 写真集

・ 軌道要素

Epoch 2018 Aug. 30.0 TT = JDT 2458360.5
T 2018 Aug. 10.17341 TT                                 MPCW
q   2.2104935            (2000.0)            P               Q
z  +0.0004107      Peri.  209.82601     +0.02468642     -0.03424850
 +/-0.0000002      Node    92.20360     -0.59785819     +0.80048967
e   0.9990922      Incl.   90.99967     -0.80122167     -0.59836722
From 2940 observations 2016 June 22-2019 May 6, mean residual 0".5.

・ 星図

・ 光度変化

        m1 = 7.0 + 5 logΔ +  7.5 log r  [    ,-310]  (              〜2017年10月 4日)
        m1 = 2.5 + 5 logΔ + 15.0 log r  [-310,   0]  (2017年10月 4日〜2018年 8月10日)
        m1 = 4.2 + 5 logΔ + 10.0 log r  [   0,    ]  (2018年 8月10日〜              )

---------------------------------------------------------------------

軌道要素はM.P.E.C. 2019-J142に掲載されたものです。
星図はステラナビゲータ Ver.10 (アストロアーツ) で作成したものです。
光度グラフはComet for Windowsで作成したものです。

---------------------------------------------------------------------

Copyright(C) Seiichi Yoshida (comet@aerith.net). All rights reserved.